Flag for Canada Weather past 2 weeks in Nelson, British Columbia, Canada

Now
67 °F

Mild.


Feels Like: 67 °F
Forecast: 51 / 79 °F
Wind: 1 mph from West

Location: Nelson

Current Time: Aug 2, 2015 at 9:26:06 AM

Latest Report: Aug 2, 2015 at 9:00 AM


Visibility: N/A

Pressure: 29.94 "Hg (28.04 "Hg at 560m altitude)

Humidity: 55%

Dew point: 50 °F

Location of NelsonLocation

Historic Weather in Nelson — Graph

°F

Nelson temperature yesterday

Maximum temperature yesterday: 97 °F (at 5:00 PM)
Minimum temperature yesterday: 56 °F (at 6:00 AM)
Average temperature yesterday: 75 °F

Past Weeks' High & Low Weather Summary

 TemperatureHumidityPressure
High100 °F (Jul 31, 4:00 PM)99% (Jul 26, 3:00 AM)30.23 "Hg (Jul 26, 3:00 AM)
Low46 °F (Jul 28, 5:00 AM)11% (Jul 31, 5:00 PM)29.62 "Hg (Jul 21, 8:00 PM)
Average68 °F57%29.94 "Hg
* Reported Jul 18 8:00 AM — Aug 2 8:00 AM, Nelson, Weather by CustomWeather, © 2015

Note: Actual official high and low records may vary slightly from our data, if they occured in-between our weather recording intervals... More about our weather records

Advertising

Nelson weather history for previous 24 hours

 ConditionsComfort  
Time TempWeatherWind HumidityBarometerVisibility
8:00 AM
Sun, Aug 2
63 °FMild.1 mph61%29.93 "HgN/A
7:00 AM58 °FCool.1 mph67%29.93 "HgN/A
6:00 AM56 °FCool.2 mph66%29.91 "HgN/A
5:00 AM57 °FCool.2 mph67%29.90 "HgN/A
4:00 AM58 °FCool.2 mph60%29.90 "HgN/A
3:00 AM59 °FCool.2 mph67%29.89 "HgN/A
2:00 AM61 °FCool.2 mph65%29.88 "HgN/A
1:00 AM63 °FMild.2 mph62%29.87 "HgN/A
11:00 PM
Sat, Aug 1
66 °FMild.3 mph60%29.85 "HgN/A
10:00 PM69 °FMild.1 mph45%29.84 "HgN/A
9:00 PM72 °FMild.No wind45%29.82 "HgN/A
8:00 PM79 °FPleasantly warm.3 mph33%29.79 "HgN/A
7:00 PM87 °FPleasantly warm.2 mph23%29.77 "HgN/A
6:00 PM95 °FExtremely hot.5 mph15%29.77 "HgN/A
5:00 PM97 °FExtremely hot.6 mph16%29.78 "HgN/A
4:00 PM95 °FExtremely hot.10 mph14%29.80 "HgN/A
3:00 PM96 °FExtremely hot.8 mph12%29.81 "HgN/A
2:00 PM95 °FExtremely hot.5 mph15%29.83 "HgN/A
1:00 PM89 °FHot.10 mph23%29.86 "HgN/A
12:00 PM89 °FHot.3 mph20%29.89 "HgN/A
11:00 AM82 °FPleasantly warm.3 mph30%29.92 "HgN/A
10:00 AM76 °FMild.5 mph32%29.94 "HgN/A
9:00 AM71 °FMild.5 mph42%29.96 "HgN/A
Weather by CustomWeather, © 2015

See weather overviewHow to use our weather pages